TimeMDT,TemperatureF,Dew PointF,Humidity,Sea Level PressureIn,VisibilityMPH,Wind Direction,Wind SpeedMPH,Gust SpeedMPH,PrecipitationIn,Events,Conditions,WindDirDegrees,DateUTC
12:53 AM,36.0,25.0,64,30.08,10.0,SE,5.8,-,N/A,,Clear,130,2013-04-01 06:53:00
2:53 AM,34.0,24.1,67,30.07,10.0,Calm,Calm,-,N/A,,Clear,0,2013-04-01 08:53:00
3:53 AM,30.0,23.0,75,30.08,10.0,South,4.6,-,N/A,,Clear,170,2013-04-01 09:53:00
4:53 AM,30.9,24.1,76,30.08,10.0,Calm,Calm,-,N/A,,Clear,0,2013-04-01 10:53:00
5:53 AM,28.9,23.0,78,30.10,10.0,South,5.8,-,N/A,,Clear,170,2013-04-01 11:53:00
6:53 AM,28.0,23.0,81,30.12,10.0,Calm,Calm,-,N/A,,Clear,0,2013-04-01 12:53:00
7:53 AM,30.9,25.0,79,30.14,10.0,SSW,3.5,-,N/A,,Clear,200,2013-04-01 13:53:00
8:53 AM,39.0,26.1,60,30.13,10.0,Calm,Calm,-,N/A,,Clear,0,2013-04-01 14:53:00
9:53 AM,43.0,26.1,51,30.11,10.0,Calm,Calm,-,N/A,,Clear,0,2013-04-01 15:53:00
10:53 AM,48.0,24.1,39,30.11,10.0,North,4.6,-,N/A,,Clear,350,2013-04-01 16:53:00
11:53 AM,48.9,23.0,36,30.12,10.0,Variable,3.5,-,N/A,,Clear,0,2013-04-01 17:53:00
12:53 PM,52.0,23.0,32,30.08,10.0,Calm,Calm,-,N/A,,Clear,0,2013-04-01 18:53:00
1:53 PM,55.0,23.0,29,30.06,10.0,Variable,3.5,-,N/A,,Clear,0,2013-04-01 19:53:00
2:53 PM,55.9,23.0,28,30.04,10.0,East,8.1,-,N/A,,Clear,90,2013-04-01 20:53:00
3:53 PM,57.9,23.0,26,30.03,10.0,North,5.8,-,N/A,,Clear,350,2013-04-01 21:53:00
4:53 PM,57.9,23.0,26,30.01,10.0,NW,4.6,-,N/A,,Clear,320,2013-04-01 22:53:00
5:53 PM,57.0,23.0,27,30.01,9.0,Calm,Calm,-,N/A,,Clear,0,2013-04-01 23:53:00
6:53 PM,55.0,25.0,31,30.02,10.0,North,3.5,-,N/A,,Clear,10,2013-04-02 00:53:00
7:53 PM,48.9,25.0,39,30.04,10.0,Calm,Calm,-,N/A,,Clear,0,2013-04-02 01:53:00
8:53 PM,46.9,24.1,41,30.05,10.0,SE,9.2,-,N/A,,Clear,130,2013-04-02 02:53:00
9:53 PM,46.0,19.0,34,30.04,10.0,SSE,12.7,-,N/A,,Clear,160,2013-04-02 03:53:00
10:53 PM,45.0,17.1,33,30.03,10.0,SE,13.8,-,N/A,,Clear,140,2013-04-02 04:53:00
11:53 PM,43.0,17.1,35,30.03,10.0,ESE,15.0,-,N/A,,Clear,120,2013-04-02 05:53:00